Theta_e
322 321 319 319 319 319 319 319 319 318 318 317 315 315 315 315 315 315 316 316 315 314 314 314 316 314 311 308 306 312 329 328 316 311 306 305 305 302 297 296 296 293 294 296 297 297 295
321 319 319 318 318 318 318 318 319 318 317 317 314 314 314 314 316 317 317 316 314 313 313 315 315 315 308 298 311 313 317 315 314 311 309 308 306 306 300 297 294 296 294 294 296 296 296
321 319 318 317 318 318 317 317 317 317 317 317 316 316 316 316 317 316 316 315 313 313 314 315 314 314 311 304 312 312 315 313 311 311 308 310 310 304 301 295 298 296 293 294 294 294 295
320 319 318 317 317 316 316 316 317 317 317 317 317 316 315 315 315 315 315 314 312 313 314 314 316 312 304 314 314 313 307 308 310 312 310 309 307 303 299 299 297 294 293 289 293 295 296
319 318 318 318 317 316 315 316 316 317 317 317 316 315 315 314 314 313 314 312 312 313 314 316 310 309 300 315 309 310 308 306 308 309 308 309 306 299 298 292 289 291 286 289 292 296 295
319 318 318 317 317 316 315 316 316 316 316 315 315 315 314 314 313 313 313 313 314 313 314 316 315 304 308 304 307 306 306 308 307 307 304 303 299 295 293 290 284 287 288 287 289 293 293
319 318 318 317 317 316 316 317 317 315 314 315 315 315 314 313 313 312 309 307 305 304 309 300 302 304 308 307 306 304 306 306 306 303 297 300 294 290 291 293 294 292 290 289 289 294 293
317 318 318 317 317 315 317 318 315 314 314 314 314 314 314 314 313 313 307 307 306 311 298 308 310 309 311 309 300 302 306 301 301 295 298 295 291 295 298 299 296 294 291 290 293 296 293
316 316 317 317 316 315 317 317 315 314 314 314 313 314 313 313 312 309 307 310 317 312 302 304 305 304 305 307 301 300 304 302 298 296 295 292 294 300 298 296 296 294 291 291 291 293 293
316 315 315 316 314 315 316 315 315 314 313 313 313 313 312 312 306 307 304 310 316 311 291 295 300 303 305 305 300 304 305 302 299 295 296 295 300 298 296 295 295 292 297 295 293 290 285
315 314 314 314 313 313 313 313 313 313 313 313 312 312 312 312 307 312 314 322 319 309 279 296 300 306 304 301 300 300 305 303 296 296 296 294 296 296 295 295 296 294 297 294 293 289 287
314 314 313 313 311 312 312 312 312 312 312 313 312 312 312 310 307 313 320 316 308 292 280 294 300 298 298 300 299 300 301 305 302 297 297 296 299 297 296 298 297 298 296 295 293 290 283
313 313 313 312 311 312 313 312 310 311 312 312 312 312 311 316 315 321 318 304 289 284 297 293 295 297 296 296 297 297 298 296 294 289 290 295 296 298 299 296 298 296 291 282 282 281 281
313 312 312 311 312 312 312 311 308 307 311 312 311 310 310 313 322 318 307 295 286 295 293 297 297 296 294 297 297 297 296 293 296 295 291 289 287 295 299 295 292 293 291 282 281 278 281
312 312 311 311 312 312 311 307 307 307 311 311 310 308 314 319 320 312 301 287 290 294 296 296 297 293 293 296 297 296 293 293 294 295 291 289 289 297 297 297 297 293 287 292 285 282 280
312 312 311 311 311 311 307 307 307 309 311 311 311 310 308 319 316 309 298 293 298 301 300 298 293 295 291 293 294 294 294 297 295 296 297 295 288 295 296 298 297 293 296 286 284 278 278
311 311 311 310 310 307 307 307 307 310 311 312 309 298 305 319 307 299 290 295 303 302 303 297 295 294 295 293 294 293 294 297 299 298 297 295 291 290 295 292 290 292 289 289 288 283 278
310 310 310 310 309 307 306 307 307 310 311 311 304 294 312 305 293 294 295 301 302 300 303 302 301 298 296 296 295 295 294 296 301 300 292 294 290 283 289 294 296 293 291 289 279 281 280
309 310 309 309 307 306 306 306 308 310 311 309 301 305 315 303 286 287 296 302 301 299 299 299 299 301 300 297 293 296 297 301 299 298 294 294 288 281 286 291 293 290 292 291 287 283 281
309 309 308 306 306 306 305 306 309 310 310 311 303 295 301 304 297 294 296 297 297 302 301 301 300 301 298 297 298 295 296 300 298 296 299 298 290 286 282 285 289 285 288 290 288 280 281
309 308 306 306 306 306 306 307 309 309 309 310 304 297 298 292 295 299 299 298 297 296 301 301 298 299 297 292 294 293 297 297 298 298 296 294 286 288 288 289 288 287 287 288 286 286 282
308 306 305 305 306 306 306 309 308 309 309 307 304 300 299 293 297 298 296 298 297 298 299 297 296 298 298 294 295 294 296 294 292 295 294 294 284 285 284 289 288 285 287 286 286 287 288
308 304 305 305 306 307 309 307 308 308 310 306 306 308 301 294 294 294 295 299 299 300 301 301 300 296 292 296 298 298 298 298 297 294 293 289 284 281 278 284 283 278 285 288 289 290 289
307 305 306 306 306 309 307 307 307 308 309 314 311 306 298 289 291 294 300 300 300 300 298 300 300 296 299 300 296 295 294 296 298 297 296 287 283 278 275 277 271 285 290 292 289 290 291
305 306 306 306 308 307 306 306 307 308 309 317 312 306 297 287 296 298 300 300 300 300 299 300 302 301 301 294 286 285 283 285 288 294 293 292 282 278 274 276 280 286 291 289 288 287 293
305 308 308 308 307 306 306 306 306 308 310 314 311 307 301 295 296 303 299 299 295 294 295 298 304 304 297 285 282 278 278 282 283 288 293 289 284 279 278 270 270 282 292 295 293 282 294
306 308 308 308 307 307 306 306 306 307 311 312 310 310 305 297 301 302 297 297 299 295 293 296 298 295 295 281 277 278 281 286 282 281 280 281 277 276 270 270 279 287 294 295 282 282 294
307 307 307 307 308 307 306 306 306 307 309 311 309 311 307 298 302 306 305 301 300 297 291 296 294 292 285 282 279 280 276 283 283 286 284 283 281 280 279 273 277 292 292 287 290 291 295
306 307 307 306 306 306 306 306 306 307 309 310 308 313 311 304 303 307 307 307 306 303 300 296 296 294 293 285 282 284 279 286 281 280 289 282 285 282 284 284 290 293 293 294 295 295 295
Wind_Speed
17 15 13 11 12 14 14 14 14 12 12 12 16 17 15 14 14 13 10 7 5 8 8 9 10 8 3 2 9 6 12 13 8 7 8 6 6 5 3 4 2 5 5 3 5 8 5
17 14 13 12 13 14 15 13 14 12 12 12 16 15 15 14 14 11 8 6 6 7 8 9 6 6 2 4 5 5 10 8 5 5 6 7 8 7 4 6 4 6 3 4 4 5 2
17 14 14 13 13 14 14 13 14 12 13 13 15 13 13 12 11 8 6 7 6 7 8 7 5 3 2 14 1 4 8 8 6 8 6 7 7 5 6 5 3 6 6 5 3 1 3
17 15 14 13 13 13 13 13 13 12 13 11 13 11 11 10 9 7 6 6 7 7 6 6 5 2 8 5 4 8 5 5 7 8 5 6 7 5 3 4 7 4 6 4 3 3 4
17 15 15 14 13 13 13 13 13 12 12 9 11 10 9 9 7 6 5 6 7 6 5 3 2 2 9 10 3 5 5 3 2 4 1 2 5 4 7 6 5 7 3 2 3 3 2
18 16 15 14 13 13 12 12 12 13 11 8 11 9 8 8 7 6 6 4 4 3 3 4 5 2 5 3 4 2 1 0 4 2 6 9 6 4 3 6 4 4 1 2 6 5 4
19 17 16 14 14 14 12 12 12 11 9 9 10 7 8 9 9 9 7 3 2 0 3 8 4 3 3 6 3 3 2 2 5 9 4 4 7 0 3 1 3 3 3 3 3 1 6
20 18 16 15 14 13 12 11 12 9 9 9 8 8 8 9 9 9 2 3 4 4 4 10 6 7 6 2 4 3 1 5 4 2 3 8 2 0 7 5 5 6 6 2 0 5 6
21 18 17 15 14 13 11 11 11 9 9 8 6 8 9 9 9 5 3 6 1 2 2 5 7 4 6 7 3 2 2 2 3 2 2 5 3 5 6 6 8 4 4 3 3 4 7
21 19 17 15 14 12 11 10 10 9 9 7 7 10 11 12 3 4 4 3 4 5 5 5 3 5 2 4 3 2 1 3 3 4 7 5 5 6 6 6 4 2 1 3 4 4 4
21 19 16 15 14 11 11 9 10 9 8 8 9 10 12 4 3 3 2 4 4 6 5 4 3 2 2 4 3 3 2 4 2 5 6 2 3 5 6 1 3 3 2 3 3 3 4
22 19 16 16 14 11 11 9 9 8 8 9 10 12 13 4 1 6 4 1 6 9 2 2 3 3 4 2 1 1 5 7 3 6 7 3 1 3 2 2 1 1 4 6 5 3 3
22 19 16 15 13 12 10 8 7 7 8 10 11 15 8 2 3 2 0 5 7 5 1 4 4 3 3 2 3 3 4 6 4 6 3 5 4 5 2 2 3 6 6 3 4 5 5
22 19 16 15 14 12 9 8 7 7 7 9 11 14 8 4 3 1 4 7 2 4 4 2 5 3 5 3 4 3 3 3 5 5 3 4 4 4 5 2 3 3 5 6 5 4 3
23 20 16 14 14 12 9 9 8 8 9 13 17 2 2 3 4 1 8 4 6 6 4 7 5 4 2 2 6 5 3 2 0 2 5 5 1 3 0 1 3 1 4 3 8 3 4
23 19 17 15 13 11 9 8 8 9 11 15 4 3 2 2 2 6 7 5 4 4 2 5 5 5 6 5 4 4 1 2 1 4 2 5 4 1 3 3 3 5 4 3 5 3 1
24 19 18 16 12 12 8 9 10 10 12 10 4 5 4 3 4 7 4 6 4 4 1 4 5 4 5 6 4 3 1 3 3 2 5 3 4 5 2 3 1 4 2 7 6 4 5
23 20 17 14 14 11 9 9 10 11 11 4 4 4 3 2 6 1 4 5 4 2 6 4 4 3 6 4 4 3 4 1 4 1 2 2 6 3 1 5 3 1 3 4 7 3 1
21 19 16 15 13 11 9 9 11 12 12 5 5 2 3 5 5 2 4 4 1 2 3 2 2 2 2 5 7 3 3 1 4 3 4 2 2 4 7 8 5 1 2 5 6 4 4
21 18 16 16 14 10 9 9 10 11 9 5 5 3 4 5 1 7 3 3 1 4 3 3 3 5 5 5 6 5 3 2 1 3 2 4 3 6 8 5 3 3 3 4 5 4 3
20 18 18 15 12 10 8 8 10 11 8 4 3 5 6 4 2 4 5 2 3 2 2 4 4 2 5 4 3 4 2 2 4 2 3 4 4 2 3 4 2 1 4 6 6 5 7
19 18 18 15 11 9 7 8 11 11 9 5 5 5 3 2 6 6 3 5 6 2 3 0 6 4 2 6 7 8 6 3 3 3 3 4 1 1 1 5 6 3 5 6 6 4 7
19 19 17 14 10 6 5 6 9 14 5 3 1 2 6 4 4 6 5 6 9 6 4 4 8 6 5 2 3 5 4 6 6 6 3 4 5 4 4 4 4 7 10 10 5 5 7
19 19 17 12 9 5 4 6 8 12 5 3 3 4 5 2 4 7 7 3 6 4 7 3 5 6 3 6 4 6 12 12 11 8 3 5 5 3 2 4 2 7 3 4 5 3 3
19 18 16 11 7 6 5 6 6 9 8 3 2 4 5 3 1 3 8 6 7 6 5 4 4 0 8 6 6 6 7 7 5 7 6 3 6 4 5 3 6 4 5 7 8 8 7
18 16 13 10 8 6 6 5 4 8 11 4 2 2 4 8 3 3 5 5 6 4 4 4 5 5 7 5 5 5 5 4 2 1 5 6 7 6 3 4 7 7 4 5 4 6 9
16 14 12 10 8 8 7 7 7 7 10 5 1 1 5 6 2 1 4 7 6 5 5 2 3 3 4 3 4 3 4 3 4 6 3 2 4 5 3 4 10 7 4 3 6 10 7
15 14 11 10 10 8 8 8 9 8 5 6 1 2 5 5 2 3 3 5 4 3 7 5 6 5 4 5 4 4 3 5 2 4 7 8 8 5 3 1 10 7 3 9 8 1 8
16 14 11 10 10 9 10 10 9 7 6 5 4 3 3 7 3 1 3 2 2 5 7 2 5 5 5 6 1 4 2 2 3 4 2 3 9 7 11 9 4 6 4 4 6 6 7
Wind_Direction
223 227 235 238 246 260 267 271 270 269 268 268 279 273 271 268 266 262 261 253 244 263 268 272 289 308 310 227 253 282 99 111 123 139 175 192 180 167 190 206 132 142 205 36 104 90 95
218 222 228 234 249 257 265 269 269 272 270 270 273 267 264 259 256 256 252 246 248 252 257 268 288 303 246 259 238 72 120 140 154 160 192 192 217 202 221 217 160 149 123 107 78 114 101
210 216 225 231 246 255 262 266 269 273 273 270 261 257 255 252 247 241 232 226 233 245 256 271 273 276 256 235 273 322 162 193 189 185 196 209 216 175 167 130 173 117 79 42 355 54 117
206 213 223 232 243 254 259 264 270 272 271 265 264 257 247 239 232 224 219 215 231 240 262 269 252 255 252 257 297 302 186 263 211 184 259 199 187 167 51 113 34 77 56 108 271 146 352
206 209 221 232 241 251 257 265 272 274 271 267 261 249 238 230 217 210 197 201 217 238 241 240 200 228 267 308 268 269 178 261 295 182 248 69 74 69 34 81 30 16 173 151 331 213 89
205 209 220 230 241 248 256 263 271 272 273 269 256 240 224 213 192 182 177 180 185 199 222 216 254 298 272 283 268 271 190 103 61 355 20 37 49 79 57 71 185 228 201 200 209 236 80
203 207 216 227 237 245 254 262 269 274 278 261 247 224 203 191 175 165 132 140 105 90 221 197 207 242 274 296 310 296 14 29 34 52 57 355 63 62 56 205 194 158 117 142 236 37 94
200 202 214 222 234 241 249 263 267 278 271 248 231 200 181 173 166 169 226 218 199 182 293 221 237 275 272 192 309 290 55 70 52 66 31 17 40 238 79 43 86 77 132 93 131 34 96
196 201 209 217 228 238 245 256 268 273 259 232 200 165 166 150 150 140 218 234 38 54 113 298 195 207 235 146 210 201 81 112 107 89 103 131 287 64 104 42 82 36 83 35 120 27 44
194 196 205 213 223 231 242 251 266 266 245 207 177 162 152 141 160 169 237 264 283 155 68 285 211 254 181 136 58 249 128 116 58 187 126 81 331 99 67 87 102 57 319 51 52 67 179
188 198 198 209 221 221 235 250 257 260 228 185 174 158 153 165 142 168 231 303 144 57 89 243 221 248 91 114 164 352 357 53 117 157 93 207 105 79 64 67 91 189 147 165 139 104 79
185 194 193 209 213 215 228 243 250 249 210 179 169 156 134 282 231 244 325 14 54 47 224 192 163 154 85 57 51 45 49 39 97 69 51 94 115 75 160 12 68 107 92 43 50 85 49
182 188 194 207 213 206 218 239 242 241 194 174 162 151 156 176 211 283 354 50 46 128 166 161 147 131 112 130 72 77 56 26 99 81 33 16 353 331 62 103 360 71 71 5 12 13 208
181 177 194 199 207 207 200 222 232 220 177 167 159 136 241 238 301 228 60 53 198 237 201 157 122 87 152 133 18 56 79 63 23 84 111 124 346 359 338 109 186 49 134 150 181 183 233
176 174 188 198 201 198 182 219 220 196 158 135 130 175 255 266 203 84 73 81 218 220 190 121 67 102 137 80 115 88 69 120 98 45 128 128 289 315 334 24 126 163 50 155 105 11 67
169 174 183 191 196 178 181 219 206 193 160 162 118 119 270 313 143 64 77 220 241 233 145 104 136 160 168 163 97 91 113 322 95 43 165 191 105 344 306 54 16 126 144 59 6 117 181
163 169 182 186 173 174 176 213 198 182 159 188 71 85 265 338 65 55 155 227 271 291 113 111 154 157 179 163 110 82 130 359 353 14 65 114 100 278 18 19 228 3 38 58 105 108 151
158 166 179 174 162 166 180 211 186 170 154 92 104 95 292 47 66 54 167 212 274 316 24 55 97 102 152 113 82 113 145 129 335 213 81 40 122 103 198 290 290 172 124 113 108 204 58
153 166 172 157 160 160 190 205 187 181 170 130 106 129 312 87 133 277 269 282 22 49 38 51 90 75 96 126 101 97 96 327 353 76 145 160 30 68 355 352 349 156 82 90 101 88 200
156 162 158 151 158 161 191 205 178 176 189 98 101 98 341 49 193 138 166 260 94 21 60 61 100 75 82 59 30 139 123 32 30 94 137 104 99 149 181 205 181 158 129 111 113 116 193
155 153 147 150 151 163 194 206 171 169 188 99 83 217 176 188 249 145 150 197 138 105 42 31 45 68 126 110 77 105 124 139 40 6 70 88 115 89 51 10 20 161 163 173 184 189 168
151 144 141 147 148 166 200 186 163 156 165 79 135 141 46 131 130 124 127 206 160 170 138 61 107 20 55 144 173 188 142 163 184 33 70 12 159 84 116 4 10 294 228 229 228 214 256
142 139 138 141 148 172 182 156 155 167 130 123 211 23 104 297 110 108 204 185 201 132 38 34 139 100 49 331 101 75 59 88 128 129 106 75 115 84 258 345 339 331 223 189 197 195 164
134 137 136 135 144 151 127 127 141 165 153 127 187 106 93 205 139 175 169 157 166 173 140 66 73 95 139 132 106 40 49 55 54 32 83 115 89 77 189 21 357 244 300 228 188 200 182
132 136 133 136 128 109 100 103 134 141 176 109 121 127 124 120 205 83 109 120 89 61 69 69 351 330 128 51 61 46 352 20 357 33 17 74 118 101 135 200 297 287 202 159 168 250 194
134 133 130 121 111 96 82 78 84 112 163 92 79 156 113 120 272 118 122 165 132 108 34 43 34 57 63 77 74 131 192 200 268 81 50 56 70 108 126 148 219 241 260 135 104 296 184
137 121 119 120 107 84 63 56 47 73 149 132 127 160 86 101 296 112 151 163 121 98 105 127 150 68 44 72 82 138 225 181 180 177 197 47 14 155 142 230 286 237 206 124 106 236 166
126 116 114 108 105 75 57 48 42 45 85 85 192 0 112 97 354 13 22 132 110 112 135 193 60 339 44 70 119 197 149 221 126 182 180 168 154 193 126 97 276 167 80 165 210 178 170
116 114 111 103 89 75 51 38 33 40 89 128 79 346 35 82 148 21 86 69 31 170 128 32 157 160 166 92 138 127 155 157 142 238 116 234 191 181 186 214 245 228 208 229 173 154 196